一网星座-0204星 (ONEWEB-0204 )

导读

ONEWEB-0204是英国一网(OneWeb)星座旗下一颗低轨宽带通信卫星,于2021年4月25日发射入轨,轨道高度约1200公里。该卫星采用Ku频段透明转发设计,单星可提供超5Gbit/s通信容量,能为小口径终端提供最高50Mbit/s的互联网接入服务。作为OneWeb全球星座的组成部分,它助力构建覆盖全球的低延时高速卫星互联网,服务偏远地区网络接入与应急通信等场景。

基本信息
目录编号:
48225
目录名称:
ONEWEB-0204
国际标识:
2021-031R
轨道中心:
EARTH
卫星名称:
一网星座-0204星
卫星全名:
一网星座-0204星 (ONEWEB-0204 )
卫星状态:
在轨 (已飞行1969 天)
发射日期:
2021-04-25 UTC
国别 :
英国 (GB)
星等 :
--
该卫星已列入 空间交会检测服务 Space Conjunction Data Service (SCDS) ,当前飞行风险评估等级: 无高风险
轨道信息
数据来源 国际轨道数据 AOE轨道数据
星历时间 2026-09-15T18:29:59+0800
13小时前
查看轨道信息
2026-09-15T22:00:00+0800
9小时前
查看轨道信息
半长轴 7583.929km 7583.932km
偏心率 0.0002076 0.0001909
轨道倾角 87.890° 87.889°
近地点辐角 99.989° 88.902°
升交点赤经 271.705° 271.677°
平近点角 260.147° 241.004°
近地点 1204.217km 1204.347km
远地点 1207.367km 1207.243km
周期 109.547分钟 109.547分钟
每日圈数 13.145026 13.145018
详细信息
平衡模式:
三轴稳定
覆盖范围:
全球
运营商:
一网卫星公司
运营商所在国:
英国
制造商(研发单位):
一网卫星公司
制造商所在国:
英国
使用方式:
暂无
卫星简介
OneWeb卫星网络由648颗重约125公斤的微型卫星组成,运行在1200公里的轨道上。 每颗卫星都能够提供至少每秒8千兆位的吞吐量,以使用其高吞吐量的Ku频段有效载荷为家庭和移动平台提供互联网接入。该卫星仍在工作。
2D轨道图
3D轨道图
轨道高度分析图
轨道倾角分析图
轨道综合分析图
查看轨道综合分析图
与全量物体交会距离演化趋势 订阅飞行安全评估服务
与全量物体交会风险概率演化趋势 订阅飞行安全评估服务